Погода в Решетихе

Россия / Нижегородская область     56°13′01″N   43°17′25″E
темп.,
°C
ветер,
м/с
пор.,
м/с
влажн.,
%
обл.,
%
осадки,
мм/ч
давл.,
гПа
погр.,
м
16 апреля, пт
пт1600:00+10св6118992 0.0 1020467
03:00+9всв61086100 0.0 1021527
06:00+8всв61184100 0.0 1022579
09:00+9всв61077100 0.0 1023630
12:00+12всв697080 0.0 1024800
15:00+12всв696889 0.0 1024967
18:00+12всв5106891 0.0 1024845
21:00+9всв5127579 0.0 1025505
17 апреля, сб
сб1700:00+6всв5127576 0.0 1026424
03:00+5всв5117754 0.0 1026351
06:00+4всв512745 0.0 1027391
09:00+8всв610545 0.0 1027585
12:00+12всв68435 0.0 1026977
15:00+14всв68315 0.0 10251279
18:00+12всв59405 0.0 1025626
21:00+8всв613540 0.0 1025481
18 апреля, вс
вс1800:00+6всв512640 0.0 1025407
03:00+4всв411705 0.0 1026345
06:00+4всв513755 0.0 1025405
09:00+9в6105561 0.0 1025851
12:00+12в6840100 0.0 10241422
15:00+13в5739100 0.0 10241958
18:00+11всв4850100 0.0 1024415
21:00+9всв51059100 0.1 1025696
19 апреля, пн
пн1900:00+7всв51179100 0.1 1026662
03:00+5всв51077100 0.1 1027579
06:00+5всв51076100 0.0 1027563
09:00+7в696156 0.0 1028851
12:00+9в795379 0.0 10291152
15:00+10в684169 0.0 10281631
18:00+8вюв6941100 0.0 10281317
21:00+6в61247100 0.0 1029792
20 апреля, вт
вт2000:00+4в612555 0.0 1027609
03:00+3в5125896 0.0 1027532
06:00+3в61365100 0.0 1027687
09:00+6вюв71163100 0.0 1026840
12:00+6вюв71365100 0.0 1025960
15:00+6вюв8146699 0.0 1022994
18:00+6вюв91568100 0.0 1021917
21:00+6вюв91864100 0.0 1019866